Погода в Любани

Погода в Любани : погода сейчас, прогноз погоды и архив. Всё, что Вы хотите узнать о погоде в Любани!

Поиск расширенной информации на нашем сайте:

Другие новости

Новости СМИ2

Главная страница сайта

Новости сайта

03.07.2017

Напоминаем, что на нашем специализированном сайте Метеоцентр.Азия вы можете получить высокодетализированные автоматические прогнозы погоды по пунктам России, СНГ и мира в авиационном формате (включающие направление и скорость ветра, видимость, явления погоды, количество и форму облачности, нижнюю и верхнюю границу облачности).


Погода в Любани - сегодня

Время (UTC), дата Ветер
(°,м/с) 
Видим.   Явления Облачность Т
(°С)
Тd
(°С)
f(%) Тe
(°С)
Pmin
(гПа)
dP
(гПа)
Po
(мм)
O2
(г/м3)
Тmin Tmax R s Состояние
почвы
06 16.01.18 160 (Ю) 4000 м  слаб. ливневой снег  9/9 450 м кучево-дожд. 
[Cb cap]
-10.8 -12.9 84 -14  1024.6  -0.9  764  322  -11    0.2  равномерный
сухой снег
100% 
09 16.01.18 150 (ЮВ) н/о    н/о 
-10 -13.3 77 -14  1023.7  -0.9  764  321           
12 16.01.18 150 (ЮВ) н/о    н/о 
-8.9 -12.6 74 -12  1021.7  -1.9  762  319           
15 16.01.18 130 (ЮВ) н/о    н/о 
-9.5 -11.8 83 -11  1019.5  -2.2  761  319           
18 16.01.18 140 (ЮВ) 10 км    ясно 
-9.7 -11.5 87 -13  1017.4  -2.1  759  318    -8.8  0.0     
21 16.01.18 130 (ЮВ) н/о    н/о 
-10.6 -12.4 87 -12  1015.9  -1.5  758  319           
00 17.01.18 150 (ЮВ) 5-11{11}  н/о    н/о 
-9 -11.1 85 -14  1014.1  -1.8  757  316           
03 17.01.18 120 (ЮВ) 3{11}  н/о    н/о 
-8.7 -11.4 81 -12  1011  -3.1  754  315  -10.7         
06 17.01.18 120 (ЮВ) 2000 м  снег  10/10 300 м 
[Ns]
-8.5 -10.2 87 -11  1008.9  -2.1  753  314  -10.7    0.4  равномерный
сухой снег
100% 
09 17.01.18 120 (ЮВ) н/о    н/о 
-7.4 -9.8 83 -10  1007.5  -1.3  752  312           
12 17.01.18 120 (ЮВ) н/о    н/о 
-6.8 -8.4 88 -8  1005.9  -1.6  751  311           
15 17.01.18 120 (ЮВ) н/о    н/о 
-6.3 -8.1 87 -9  1004.7  -1.1  750  310           
18 17.01.18 110 (В) 4000 м  слаб. снег  10/10 480 м 
[Ns]
-5.9 -7.1 91 -7  1004.4  -0.3  750  309    -5.9     
21 17.01.18 100 (В) н/о    н/о 
-5.8 -7.4 88 -8  1004.5  0.1  750  309           
00 18.01.18 110 (В) н/о    н/о 
-6.1 -8 86 -8  1003.5  -1  749  309           
03 18.01.18 110 (В) н/о    н/о 
-6.6 -8.6 86 -8  1002.7  -0.8  748  310  -6.6         
06 18.01.18 100 (В) 4000 м  слаб. снег  10/10 500 м 
[Ns]
-7.1 -8.9 87 -9  1002  -0.7  748  310  -7.1    равномерный
сухой снег
100% 
09 18.01.18 120 (ЮВ) н/о    н/о 
-6.8 -8.6 87 -8  1002.3  -0.7  748  310           
12 18.01.18 120 (ЮВ) н/о    н/о 
-6.5 -8.3 87 -8  1001.7  -0.5  748  309           
15 18.01.18 130 (ЮВ) н/о    н/о 
-6 -7.8 87 -7  1001.7  748  309           
18 18.01.18 130 (ЮВ) 4000 м  слаб. снег  10/10 360 м 
[Ns]
-5 -6.4 90 -6  1002.1  0.4  748  308    -5     
21 18.01.18 150 (ЮВ) н/о    н/о 
-3.9 -5 92 -5  1003.6  1.6  749  307           
00 19.01.18 160 (Ю) н/о    н/о 
-3.7 -5.5 87 -5  1004.4  0.7  749  307           
03 19.01.18 150 (ЮВ) н/о    н/о 
-3.6 -5.1 89 -5  1005.6  1.3  750  307  -6         
06 19.01.18 140 (ЮВ) 10 км    10/10 480 м 
[Sc]
-3.8 -5.2 90 -5  1007  1.3  752  308  -5    0.3  равномерный
сухой снег
100% 
Время (UTC), дата Ветер
(°,м/с) 
Видим.   Явления Облачность Т
(°С)
Тd
(°С)
f(%) Тe
(°С)
Pmin
(гПа)
dP
(гПа)
Po
(мм)
O2
(г/м3)
Тmin Tmax R s Состояние
почвы

Для получения пояснительной информации подведите курсор к названию столбца.

ПОГОДА в Любани - архив

Всё, что Вы хотите узнать о погоде в Любани - удобно и подробно!

Выберите нужную дату (начиная с 1 января 2015* года) и нажмите кнопку "Найти".
Будут отображены архивные сводки погоды по пункту Любань, начиная с указанной даты.


Отображать данные в формате CSV (для использования в таблицах Excel)


Внимание! Наш архив погоды предназначен исключительно для личного некоммерческого использования в познавательных целях. Если Вам необходимы официальные справки о состоянии погоды (для производственных, юридических, коммерческих и т.п. целей), обращайтесь в органы Росгидромета.

*Примечание: данная дата относится к архиву по метеостанциям СССР (Россия, СНГ, Балтия).
Архив по метеостанциям Зарубежной Европы и Азии (кроме Китая) хранится 10 дней, по другим регионам земного шара (Китай, Африка, Америка, Австралия, Океания) - 1 день.

Любань - район местоположения метеостанции


Название, широта, долгота, высота метеостанции:
Любань 59.3°ш. 31.2°д. 39 м над ур. моря [Российская Федерация]

Дополнительная информация

В oтличие oт бoльшинства пoгoдных сайтoв мы публикуем пoдрoбную метеoинфoрмацию в детальнoм прoфессиoнальнoм фoрмате.

Характеристики температуры и влажнoсти вoздуха измеряются на высoте 2 м в тени вдали oт зданий и деревьев.
Скoрoсть ветра измеряется на высoте 10 м (на урoвне рoста челoвека скoрoсть ветра ниже в 1.5-2 раза). Если метеoстанция нахoдится в гoрoде или в лесу, тo скoрoсть ветра занижена на 2-4 м/с пo сравнению с oткрытым местoм. Скoрoсть ветра над акватoриями крупных рек и oзёр, а также на вершинах хoлмoв на 2-5 м/с выше, чем в oбычных услoвиях.
Атмoсфернoе давление в разных тoчках местнoсти мoжет значительнo oтличаться oт давления на метеoстанции, в зависимoсти oт услoвий рельефа (при пoдъёме на 10 м давление пoнижается примернo на 1 мм рт.ст.).